Regional Weather Roundup
Issued by NWS Albany, NY

Current Version | Previous Version | Graphics & Text | Print | Product List | Glossary Off
Versions: 1 2 3 4 5 6 7 8 9 10 11 12 13 14 15 16 17 18 19 20 21 22 23 24 25 26 27 28 29 30 31 32 33 34 35 36 37 38 39 40 41 42 43 44 45 46 47 48 49 50

000
ASUS41 KALY 261910
RWRALY

NEW YORK STATE HOURLY WEATHER ROUNDUP
NATIONAL WEATHER SERVICE ALBANY NY
200 PM EST FRI DEC 26 2014

NOTE: "FAIR" INDICATES FEW OR NO CLOUDS BELOW 12,000 FEET WITH NO
SIGNIFICANT WEATHER AND/OR NO OBSTRUCTIONS TO VISIBILITY.

NYZ032-033-038>043-046>054-057>066-NYZ062>081-262000-
EAST


CITY           SKY/WX    TMP DP  RH WIND       PRES   REMARKS
ALBANY         FAIR      46  28  49 W9        30.18F
GLENS FALLS    FAIR      46  29  51 SW9       30.14S
POUGHKEEPSIE   FAIR      50  28  42 CALM      30.17F
NEWBURGH       SUNNY     48  30  49 NW6       30.18F
MONTGOMERY     FAIR      50  28  42 W8        30.16F
WHITE PLAINS   FAIR      48  28  46 NW8       30.17F
ISLIP          FAIR      50  30  46 VRB3      30.16F
NEW YORK CITY  FAIR      49  30  48 NW9       30.19F
CENTRAL PARK   FAIR      49  27  42 NW6       30.21F
$$

NYZ005>009-017-018-044>046-055-056-262000-
CENTRAL


CITY           SKY/WX    TMP DP  RH WIND       PRES   REMARKS
FULTON         FAIR      45  30  55 S9        30.14F
SYRACUSE       FAIR      45  30  55 S8        30.15F
ROME           FAIR      43  31  62 W10       30.18F
ELMIRA         FAIR      46  28  49 SW7       30.15F
BINGHAMTON     FAIR      41  28  60 SW7       30.12F
MONTICELLO     FAIR      43  27  52 NW3       30.15F
$$

NYZ026>034-041>043-262000-
NORTH


CITY           SKY/WX    TMP DP  RH WIND       PRES   REMARKS
WATERTOWN      CLOUDY    44  31  60 SW13      30.13F
FORT DRUM      NOT AVBL
MASSENA        PTSUNNY   42  29  59 SW13      30.10F
SARANAC LAKE   FAIR      36  27  69 SW14G22   30.05F WCI  27
PLATTSBURGH    FAIR      42  29  59 MISG      30.09F
$$

NYZ001>004-010>016-019>021-262000-
WEST


CITY           SKY/WX    TMP DP  RH WIND       PRES   REMARKS
NIAGARA FALLS  PTSUNNY   45  33  63 SW15      30.11F
BUFFALO        PTSUNNY   46  31  55 SW16G22   30.11F
DUNKIRK        FAIR      48  31  51 W9G18     30.13F
JAMESTOWN      FAIR      45  28  53 SW8G16    30.12F
WELLSVILLE     FAIR      41  26  55 VRB5      30.12F
ROCHESTER      PTSUNNY   46  30  53 S13G18    30.13F
PENN YAN       FAIR      45  28  51 S7        30.14F
$$

             KEY
       WCI = WIND CHILL INDEX
       VSB = VISIBILITY
       HX  = HEAT INDEX
$$


USA.gov is the U.S. government's official web portal to all federal, state and local government web resources and services.